FW4187 Weather Reports


time (UTC)temp
C
wind
direction
speed
KPH
gust
KPH
rain 1hr
cm
rain 24hr
cm
rain mn
cm
humidity
%
barometer
mb
20260506111529 8 335 1.6 8.0 0.03 1.45 1.02 98 1007.3
20260506111029 8 274 3.2 8.0 0.03 1.45 1.02 98 1007.3
20260506110529 7 321 1.6 6.4 0.05 1.45 1.02 98 1007.2
20260506110028 8 71 1.6 4.8 0.05 1.45 1.02 98 1007.3
20260506105526 8 76 1.6 9.7 0.05 1.60 1.02 98 1007.3
20260506105026 8 340 1.6 8.0 0.05 1.60 1.02 98 1007.2
20260506104525 8 35 0.0 8.0 0.05 1.60 1.02 98 1007.2
20260506104026 8 82 1.6 4.8 0.05 1.60 1.02 98 1007.2
20260506103525 8 334 0.0 4.8 0.08 1.60 1.02 98 1007.1
20260506103025 8 62 1.6 8.0 0.05 1.57 0.99 98 1007.0
20260506102524 8 360 1.6 6.4 0.08 1.57 0.99 98 1007.0
20260506102022 8 92 1.6 6.4 0.08 1.57 0.99 98 1007.0
20260506101523 8 336 1.6 6.4 0.10 1.57 0.99 98 1006.9
20260506101026 8 334 0.0 6.4 0.10 1.57 0.99 98 1006.9
20260506100526 8 130 1.6 4.8 0.08 1.55 0.99 98 1006.8
20260506100021 8 93 0.0 6.4 0.08 1.55 0.99 98 1006.9
20260506095521 8 22 3.2 9.7 0.08 1.75 0.99 98 1006.9
20260506095021 8 348 1.6 9.7 0.08 1.75 0.99 98 1006.8
20260506094521 8 52 0.0 4.8 0.05 1.75 0.97 98 1006.8
20260506094021 8 67 1.6 6.4 0.05 1.75 0.97 98 1006.8
20260506093522 8 5 0.0 8.0 0.05 1.73 0.94 98 1006.8
20260506093019 8 355 1.6 8.0 0.05 1.73 0.94 98 1006.7
20260506092519 8 326 1.6 6.4 0.03 1.70 0.91 98 1006.8
20260506092021 8 167 1.6 6.4 0.03 1.70 0.91 98 1006.6
20260506091519 8 335 1.6 6.4 0.00 1.68 0.89 98 1006.4
20260506091019 8 74 1.6 6.4 0.00 1.68 0.89 98 1006.4
20260506090519 8 165 1.6 8.0 0.03 1.68 0.89 98 1006.4
20260506090026 8 59 1.6 9.7 0.03 1.68 0.89 98 1006.4
20260506085519 8 40 1.6 9.7 0.03 1.68 0.89 98 1006.4
20260506085017 8 320 1.6 8.0 0.03 1.68 0.89 98 1006.3
20260506084520 8 331 1.6 6.4 0.03 1.68 0.89 98 1006.3
20260506084017 8 307 0.0 8.0 0.03 1.68 0.89 98 1006.4
20260506083517 8 338 0.0 6.4 0.03 1.68 0.89 98 1006.3
20260506083017 8 330 3.2 6.4 0.03 1.68 0.89 98 1006.2
20260506082516 8 17 1.6 6.4 0.03 1.68 0.89 98 1006.3
20260506082016 8 348 0.0 6.4 0.03 1.68 0.89 98 1006.2
20260506081516 8 344 1.6 6.4 0.03 1.68 0.89 98 1006.3
20260506081016 8 360 1.6 6.4 0.03 1.68 0.89 98 1006.2
20260506080516 8 49 0.0 0.0 0.00 1.65 0.89 98 1006.2
20260506073514 8 355 0.0 6.4 0.03 1.65 0.89 98 1006.2
20260506073014 8 40 1.6 9.7 0.03 1.65 0.89 98 1006.1
20260506072513 8 82 3.2 9.7 0.03 1.65 0.89 98 1006.1
20260506072012 8 346 1.6 8.0 0.03 1.65 0.89 98 1006.1
20260506071511 8 332 1.6 8.0 0.05 1.65 0.89 98 1006.1
20260506071010 8 338 1.6 6.4 0.05 1.65 0.89 98 1006.0
20260506070610 8 344 1.6 6.4 0.05 1.65 0.89 98 1006.0
20260506062506 8 26 1.6 6.4 0.05 1.65 0.86 98 1005.8
20260506062006 8 355 3.2 6.4 0.05 1.65 0.86 98 1005.8
20260506061505 8 360 0.0 4.8 0.05 1.65 0.84 98 1005.8
20260506061004 8 309 0.0 4.8 0.05 1.65 0.84 98 1005.7
20260506060505 8 49 0.0 4.8 0.05 1.65 0.84 98 1005.7
20260506051058 8 322 0.0 3.2 0.05 1.60 0.79 98 1005.6
20260506050558 8 323 0.0 6.4 0.05 1.60 0.79 98 1005.6
20260506050110 8 348 0.0 6.4 0.05 1.60 0.79 98 1005.7
20260506044555 8 342 0.0 4.8 0.05 1.57 0.79 98 1005.6
20260506044055 8 284 0.0 4.8 0.05 1.57 0.79 98 1005.7
20260506043553 8 336 0.0 4.8 0.03 1.55 0.76 98 1005.6
20260506043100 8 325 0.0 9.7 0.03 1.55 0.76 98 1005.6
20260506042552 8 90 1.6 9.7 0.05 1.55 0.76 98 1005.6
20260506042053 8 9 1.6 6.4 0.05 1.55 0.76 98 1005.6
20260506041552 8 344 1.6 6.4 0.05 1.55 0.76 98 1005.5
20260506041052 8 111 1.6 6.4 0.05 1.55 0.76 98 1005.5
20260506040550 8 94 0.0 4.8 0.05 1.55 0.76 98 1005.5
20260506040100 8 44 1.6 9.7 0.08 1.55 0.76 98 1005.5
20260506035549 8 334 1.6 9.7 0.08 1.55 0.76 98 1005.5
20260506035050 8 306 1.6 8.0 0.05 1.55 0.71 98 1005.4
20260506034551 8 89 1.6 6.4 0.05 1.55 0.71 98 1005.4
20260506034047 8 340 1.6 6.4 0.05 1.55 0.71 98 1005.5
20260506033547 9 329 0.0 4.8 0.08 1.55 0.71 98 1005.6
20260506033049 9 15 1.6 4.8 0.08 1.55 0.71 98 1005.4
20260506032548 9 58 1.6 8.0 0.05 1.52 0.71 98 1005.5
20260506032046 9 70 0.0 6.4 0.05 1.52 0.71 98 1005.6
20260506031550 9 337 0.0 6.4 0.08 1.52 0.71 98 1005.6
20260506031047 9 122 1.6 6.4 0.05 1.50 0.71 98 1005.6
20260506030543 9 360 1.6 4.8 0.05 1.50 0.71 98 1005.6
20260506030045 9 284 0.0 6.4 0.05 1.45 0.69 98 1005.7
20260506025541 9 360 0.0 6.4 0.05 1.45 0.69 98 1005.7
20260506025040 9 165 1.6 8.0 0.05 1.45 0.69 98 1005.7
20260506024552 9 273 1.6 8.0 0.08 1.45 0.69 98 1005.8
20260506024040 9 296 1.6 4.8 0.08 1.45 0.69 98 1005.7
20260506023541 9 338 1.6 4.8 0.08 1.42 0.66 98 1005.8
20260506023039 9 167 1.6 11.3 0.08 1.42 0.66 98 1005.8
20260506022538 10 83 3.2 11.3 0.08 1.42 0.66 98 1005.8
20260506022037 10 87 1.6 6.4 0.10 1.42 0.66 98 1005.8
20260506021551 10 325 1.6 6.4 0.08 1.42 0.64 98 1005.8
20260506021038 10 349 0.0 4.8 0.10 1.42 0.64 98 1005.9
20260506020537 10 320 0.0 4.8 0.13 1.42 0.64 98 1005.9
20260506020037 10 39 0.0 6.4 0.10 1.42 0.61 98 1005.9
20260506015536 10 82 1.6 9.7 0.13 1.42 0.61 98 1005.9
20260506015036 10 183 1.6 6.4 0.15 1.42 0.61 98 1005.9
20260506014535 10 88 0.0 8.0 0.13 1.40 0.61 98 1005.9
20260506014034 10 10 3.2 8.0 0.15 1.40 0.61 98 1006.0
20260506013533 10 83 0.0 8.0 0.15 1.37 0.58 98 1006.0
20260506013033 10 64 3.2 8.0 0.15 1.37 0.58 98 1006.0
20260506012533 10 88 1.6 6.4 0.15 1.37 0.58 98 1006.0
20260506012033 10 340 1.6 9.7 0.15 1.37 0.56 98 1006.1
20260506011536 10 20 3.2 9.7 0.15 1.37 0.56 98 1006.1
20260506011032 10 128 1.6 4.8 0.15 1.35 0.53 98 1006.1
20260506010531 10 344 1.6 4.8 0.15 1.32 0.51 98 1006.1
20260506010030 10 17 0.0 6.4 0.15 1.32 0.51 98 1006.2
20260506005528 10 23 1.6 12.9 0.15 1.30 0.51 98 1006.2
20260506005028 10 355 3.2 12.9 0.15 1.27 0.48 98 1006.2
20260506004528 10 309 0.0 6.4 0.15 1.27 0.46 98 1006.3
20260506004027 10 338 3.2 6.4 0.15 1.27 0.46 98 1006.3
20260506003530 10 20 1.6 6.4 0.15 1.24 0.43 98 1006.3
20260506003027 10 23 1.6 6.4 0.15 1.22 0.43 98 1006.4
20260506002525 10 336 0.0 6.4 0.15 1.22 0.43 98 1006.4
20260506002025 10 330 1.6 6.4 0.15 1.19 0.41 98 1006.4
20260506001525 10 294 0.0 9.7 0.18 1.19 0.41 98 1006.6
20260506001024 10 335 1.6 6.4 0.15 1.17 0.38 98 1006.5
20260506000526 10 98 0.0 6.4 0.15 1.17 0.36 98 1006.6
20260506000023 10 355 0.0 3.2 0.15 1.17 0.36 98 1006.7
20260505235526 10 338 0.0 4.8 0.15 1.14 0.33 98 1006.7
20260505235022 10 74 0.0 6.4 0.15 1.12 0.33 98 1006.8
20260505234522 10 9 1.6 6.4 0.15 1.09 0.30 98 1006.9
20260505234023 10 313 0.0 4.8 0.15 1.09 0.30 98 1006.9
20260505233521 10 5 0.0 6.4 0.15 1.09 0.28 98 1006.9
20260505233020 10 330 1.6 6.4 0.18 1.09 0.28 98 1006.9
20260505232520 10 5 1.6 4.8 0.18 1.07 0.25 98 1007.0
20260505232024 10 38 1.6 4.8 0.18 1.04 0.23 98 1007.1
20260505231522 10 331 1.6 6.4 0.15 1.02 0.23 98 1007.0
20260505231022 10 298 1.6 6.4 0.18 1.02 0.23 98 1007.0
20260505230518 10 340 0.0 4.8 0.18 0.99 0.20 98 1007.1
20260505230018 10 310 1.6 4.8 0.20 0.99 0.20 98 1007.1
20260505225517 10 5 1.6 8.0 0.18 0.99 0.18 98 1007.2
20260505225016 10 301 1.6 8.0 0.18 0.97 0.15 98 1007.2
20260505224516 10 323 1.6 6.4 0.18 0.97 0.15 98 1007.2
20260505224014 10 336 1.6 6.4 0.18 0.94 0.15 98 1007.3
20260505223614 10 360 0.0 4.8 0.18 0.91 0.13 98 1007.3
20260505223013 10 5 0.0 4.8 0.18 0.89 0.10 98 1007.3
20260505222514 10 9 1.6 4.8 0.15 0.89 0.08 98 1007.4
20260505222013 10 355 0.0 4.8 0.15 0.86 0.05 98 1007.3
20260505221514 10 276 0.0 3.2 0.18 0.86 0.05 98 1007.4
20260505221013 10 311 0.0 1.6 0.20 0.84 0.05 98 1007.5
20260505220512 10 327 0.0 4.8 0.18 0.81 0.03 98 1007.4
20260505220010 10 321 1.6 6.4 0.18 0.79 0.00 98 1007.4
20260505215509 10 303 3.2 6.4 0.18 0.81 0.79 98 1007.5
20260505215009 10 17 0.0 4.8 0.18 0.79 0.79 98 1007.4
20260505214511 10 327 0.0 4.8 0.18 0.79 0.79 98 1007.5
20260505214009 10 341 0.0 4.8 0.15 0.79 0.76 98 1007.6
20260505213510 10 341 0.0 6.4 0.15 0.76 0.71 98 1007.6
20260505213009 10 348 0.0 6.4 0.15 0.71 0.71 98 1007.7
20260505212507 10 343 0.0 4.8 0.15 0.71 0.71 98 1007.7
20260505212007 10 313 0.0 6.4 0.15 0.71 0.71 98 1007.7
20260505211506 10 345 1.6 6.4 0.10 0.69 0.66 98 1007.7
20260505211006 10 55 0.0 3.2 0.10 0.66 0.64 98 1007.8
20260505210508 10 349 0.0 6.4 0.13 0.66 0.64 98 1007.8
20260505210005 10 185 1.6 6.4 0.13 0.64 0.61 98 1007.8
20260505205505 10 325 0.0 4.8 0.13 0.64 0.61 98 1007.9
20260505205004 10 342 0.0 4.8 0.13 0.61 0.61 98 1007.9
20260505204504 10 36 0.0 8.0 0.15 0.61 0.61 98 1007.9
20260505204003 10 321 0.0 6.4 0.15 0.61 0.61 98 1007.9
20260505203603 10 340 1.6 6.4 0.15 0.61 0.61 98 1007.9
20260505203003 10 336 1.6 6.4 0.15 0.61 0.58 98 1007.9
20260505202503 10 277 1.6 6.4 0.13 0.58 0.56 97 1008.0
20260505202002 10 89 1.6 4.8 0.15 0.58 0.56 97 1007.9
20260505201510 10 355 1.6 4.8 0.15 0.58 0.56 97 1008.0
20260505201002 10 213 0.0 6.4 0.13 0.56 0.53 97 1007.9
20260505200503 10 326 1.6 9.7 0.13 0.53 0.51 97 1007.9
20260505200001 10 306 3.2 9.7 0.10 0.51 0.51 97 1007.9
20260505195501 10 326 0.0 6.4 0.13 0.53 0.51 97 1007.9
20260505195001 10 318 0.0 6.4 0.10 0.51 0.48 97 1007.9
20260505194500 10 338 0.0 6.4 0.08 0.51 0.46 97 1007.9
20260505194100 10 319 0.0 6.4 0.08 0.51 0.46 97 1007.9
20260505193604 10 267 0.0 6.4 0.08 0.51 0.46 97 1008.0
20260505193100 10 5 1.6 6.4 0.05 0.48 0.43 97 1008.0
20260505192559 10 224 0.0 3.2 0.05 0.48 0.43 97 1008.0
20260505192059 10 338 0.0 3.2 0.05 0.46 0.43 97 1008.0
20260505191559 10 349 0.0 6.4 0.05 0.46 0.43 97 1008.0
20260505191059 10 311 1.6 6.4 0.05 0.46 0.43 97 1008.0
20260505190658 10 337 1.6 6.4 0.05 0.46 0.43 97 1008.0
20260505190059 10 333 0.0 4.8 0.03 0.43 0.41 97 1008.0
20260505185557 10 311 0.0 4.8 0.00 0.43 0.38 97 1008.0
20260505185057 10 22 0.0 4.8 0.00 0.43 0.38 97 1008.0
20260505184557 10 66 0.0 6.4 0.00 0.43 0.38 97 1007.9
20260505184057 10 64 1.6 8.0 0.00 0.43 0.38 96 1008.0
20260505183557 10 336 3.2 9.7 0.00 0.43 0.38 96 1008.0
20260505183105 10 266 1.6 9.7 0.00 0.43 0.38 96 1008.0
20260505182555 10 337 1.6 9.7 0.00 0.43 0.38 96 1008.0
20260505182055 10 329 0.0 6.4 0.00 0.43 0.38 97 1008.0
20260505181555 10 340 0.0 6.4 0.00 0.43 0.38 96 1008.0
20260505181055 10 327 0.0 6.4 0.00 0.43 0.38 96 1008.0
20260505180555 10 325 1.6 6.4 0.00 0.43 0.38 96 1008.0
20260505180056 10 331 1.6 6.4 0.00 0.43 0.38 96 1008.0
20260505175553 10 319 0.0 6.4 0.00 0.51 0.38 96 1008.1
20260505175053 10 333 1.6 6.4 0.00 0.51 0.38 96 1008.1
20260505174559 10 338 0.0 8.0 0.00 0.51 0.38 96 1008.0
20260505174053 11 5 3.2 8.0 0.00 0.51 0.38 96 1008.0
20260505173553 11 333 1.6 6.4 0.00 0.51 0.38 96 1008.1
20260505173052 11 30 1.6 6.4 0.00 0.51 0.38 96 1008.0
20260505172552 11 346 1.6 6.4 0.00 0.51 0.38 96 1008.1
20260505172055 11 246 0.0 6.4 0.00 0.51 0.38 96 1008.1
20260505171551 11 311 0.0 8.0 0.00 0.51 0.38 96 1008.1
20260505171051 11 171 0.0 8.0 0.00 0.51 0.38 96 1008.1
20260505170549 11 23 1.6 8.0 0.00 0.51 0.38 96 1008.1
20260505170150 11 325 1.6 9.7 0.00 0.51 0.38 96 1008.1
20260505165548 11 26 1.6 9.7 0.00 0.53 0.38 96 1008.1
20260505165048 11 296 0.0 8.0 0.00 0.53 0.38 96 1008.2
20260505164548 11 248 1.6 8.0 0.00 0.53 0.38 96 1008.2
20260505164048 11 300 0.0 6.4 0.00 0.53 0.38 96 1008.1
20260505163547 11 348 1.6 12.9 0.00 0.53 0.38 96 1008.2
20260505163047 11 294 1.6 12.9 0.00 0.53 0.38 96 1008.3
20260505162546 11 259 1.6 6.4 0.00 0.53 0.38 96 1008.2
20260505162046 11 5 0.0 8.0 0.00 0.53 0.38 96 1008.2
20260505161545 11 13 1.6 8.0 0.00 0.53 0.38 96 1008.3
20260505161045 11 327 1.6 6.4 0.00 0.53 0.38 96 1008.3
20260505160545 11 298 1.6 8.0 0.00 0.53 0.38 96 1008.3
20260505153042 11 254 1.6 6.4 0.00 0.56 0.38 96 1008.5
20260505152541 11 344 1.6 9.7 0.00 0.56 0.38 96 1008.5
20260505152041 11 325 3.2 9.7 0.00 0.56 0.38 97 1008.6
20260505151541 11 42 1.6 9.7 0.00 0.56 0.38 97 1008.6
20260505151040 11 69 1.6 6.4 0.00 0.56 0.38 97 1008.6
20260505150540 11 46 0.0 9.7 0.00 0.56 0.38 97 1008.5
20260505140534 11 348 3.2 12.9 0.05 0.56 0.38 97 1008.7
20260505125026 12 348 3.2 9.7 0.00 0.51 0.33 97 1009.2
20260505124533 12 283 1.6 8.0 0.00 0.51 0.33 97 1009.1
20260505124027 12 145 1.6 8.0 0.00 0.51 0.33 97 1009.2
20260505123526 12 339 0.0 9.7 0.00 0.51 0.33 97 1009.2
20260505123030 12 325 0.0 9.7 0.00 0.51 0.33 97 1009.2
20260505122526 12 50 1.6 8.0 0.00 0.51 0.33 97 1009.2
20260505122027 12 9 1.6 8.0 0.00 0.51 0.33 97 1009.2
20260505121534 12 265 1.6 6.4 0.00 0.51 0.33 97 1009.2
20260505121026 12 78 1.6 6.4 0.00 0.51 0.33 97 1009.2
20260505120526 12 66 1.6 8.0 0.00 0.51 0.33 97 1009.2
20260505120037 12 315 1.6 8.0 0.00 0.51 0.33 97 1009.2
20260505115527 12 56 0.0 8.0 0.00 0.51 0.33 97 1009.3
20260505115027 12 78 1.6 8.0 0.00 0.51 0.33 97 1009.3
20260505114524 12 335 1.6 12.9 0.03 0.51 0.33 97 1009.3
20260505114024 12 306 3.2 12.9 0.05 0.51 0.33 97 1009.3
20260505113523 12 57 3.2 9.7 0.05 0.51 0.33 97 1009.3
20260505113023 12 50 1.6 8.0 0.05 0.51 0.33 97 1009.4
20260505112523 12 109 1.6 6.4 0.08 0.51 0.33 97 1009.4
20260505112022 12 275 1.6 6.4 0.10 0.51 0.33 97 1009.3